EW4806 Weather Reports


Display with metric or nautical units.
time (UTC)temp
F
wind
direction
speed
MPH
gust
MPH
rain 1hr
in
rain 24hr
in
rain mn
in
humidity
%
barometer
mb
20260831131632 51 189 0.0 0.0 0.00 0.00 0.00 66 1011.7
20260831130130 52 189 0.0 0.0 0.00 0.00 0.00 65 1011.7
20260831124631 52 189 0.0 0.0 0.00 0.00 0.00 64 1011.8
20260831123820 52 189 0.0 0.0 0.00 0.00 0.00 64 1011.7
20260831121626 52 189 0.0 0.0 0.00 0.00 0.00 63 1011.7
20260831120125 53 189 0.0 0.0 0.00 0.00 0.00 62 1011.7
20260831115319 53 189 0.0 0.0 0.00 0.00 0.00 62 1011.8
20260831113122 54 189 0.0 0.0 0.00 0.00 0.00 60 1011.8
20260831111621 54 189 0.0 0.0 0.00 0.00 0.00 60 1011.9
20260831110118 54 189 0.0 0.0 0.00 0.00 0.00 59 1011.8
20260831104620 55 190 0.0 0.0 0.00 0.00 0.00 58 1011.9
20260831103118 56 189 0.0 0.0 0.00 0.00 0.00 57 1011.8
20260831101618 56 189 0.0 0.0 0.00 0.00 0.00 56 1011.8
20260831100116 56 190 0.0 0.0 0.00 0.00 0.00 54 1011.9
20260831100004 56 189 0.0 0.0 0.00 0.00 0.00 52 1011.9
20260831093116 57 189 0.0 0.0 0.00 0.00 0.00 53 1012.1
20260831091616 57 189 0.0 0.0 0.00 0.00 0.00 51 1012.2
20260831090116 58 189 0.0 0.0 0.00 0.00 0.00 51 1012.1
20260831084616 58 189 0.0 0.0 0.00 0.00 0.00 50 1012.2
20260831083117 59 189 0.0 0.0 0.00 0.00 0.00 49 1012.3
20260831081616 59 189 0.0 0.0 0.00 0.00 0.00 48 1012.3
20260831080114 60 189 0.0 0.0 0.00 0.00 0.00 45 1012.3
20260831074615 60 189 0.0 0.0 0.00 0.00 0.00 45 1012.5
20260831073115 61 189 0.0 0.0 0.00 0.00 0.00 44 1012.5
20260831071614 62 189 0.0 0.0 0.00 0.00 0.00 43 1012.6
20260831070111 63 189 0.0 0.0 0.00 0.00 0.00 41 1012.5
20260831064610 64 189 0.0 0.0 0.00 0.00 0.00 40 1012.6
20260831063109 64 189 0.0 0.0 0.00 0.00 0.00 38 1012.7
20260831061606 65 189 0.0 0.0 0.00 0.00 0.00 36 1012.8
20260831054601 66 189 0.0 0.0 0.00 0.00 0.00 35 1012.8
20260831053059 67 189 0.0 0.0 0.00 0.00 0.00 34 1012.9
20260831051556 68 189 0.0 0.0 0.00 0.00 0.00 33 1012.9
20260831050744 69 190 0.0 0.0 0.00 0.00 0.00 32 1012.9
20260831044553 71 190 0.0 0.0 0.00 0.00 0.00 30 1012.9
20260831043050 72 192 0.0 0.0 0.00 0.00 0.00 27 1012.8
20260831042245 73 219 0.0 1.0 0.00 0.00 0.00 27 1012.6
20260831040048 74 215 0.0 0.0 0.00 0.00 0.00 27 1012.5
20260831035243 74 217 0.0 0.0 0.00 0.00 0.00 27 1012.3
20260831033749 76 265 0.0 0.0 0.00 0.00 0.00 25 1012.1
20260831031546 77 264 0.0 4.0 0.00 0.00 0.00 24 1011.9
20260831030043 78 233 0.0 2.0 0.00 0.00 0.00 24 1011.8
20260831024540 79 272 0.0 3.0 0.00 0.00 0.00 23 1011.6
20260831023041 80 278 1.0 4.0 0.00 0.00 0.00 22 1011.5
20260831021540 81 295 1.0 4.0 0.00 0.00 0.00 21 1011.5
20260831020040 82 268 1.0 4.0 0.00 0.00 0.00 20 1011.3
20260831014540 83 301 1.0 4.0 0.00 0.00 0.00 20 1011.5
20260831013040 84 283 1.0 4.0 0.00 0.00 0.00 19 1011.5
20260831011541 84 266 1.0 6.0 0.00 0.00 0.00 19 1011.5
20260831010040 84 276 1.0 12.0 0.00 0.00 0.00 19 1011.6
20260831004540 85 276 1.0 7.0 0.00 0.00 0.00 18 1011.7
20260831003039 85 310 2.0 10.0 0.00 0.00 0.00 20 1011.7
20260831001535 85 326 1.0 9.0 0.00 0.00 0.00 19 1011.8
20260831000035 85 273 1.0 7.0 0.00 0.00 0.00 19 1011.7
20260830234536 85 235 1.0 9.0 0.00 0.00 0.00 19 1011.8
20260830233737 84 247 1.0 8.0 0.00 0.00 0.00 19 1012.1
20260830231535 84 274 1.0 5.0 0.00 0.00 0.00 21 1012.3
20260830230033 83 267 1.0 7.0 0.00 0.00 0.00 21 1012.5
20260830225222 83 265 0.0 3.0 0.00 0.00 0.00 21 1012.8
20260830223028 82 286 0.0 7.0 0.00 0.00 0.00 23 1013.0
20260830221527 82 282 0.0 3.0 0.00 0.00 0.00 24 1013.3
20260830220723 80 260 0.0 2.0 0.00 0.00 0.00 25 1013.8
20260830214528 80 350 0.0 2.0 0.00 0.00 0.00 26 1014.1
20260830213027 79 335 0.0 3.0 0.00 0.00 0.00 27 1014.4
20260830211521 77 283 1.0 7.0 0.00 0.00 0.00 29 1014.8
20260830211426 77 275 0.0 4.0 0.00 0.00 0.00 29 1015.0
20260830204522 76 347 0.0 3.0 0.00 0.00 0.00 30 1015.1
20260830203022 75 270 0.0 2.0 0.00 0.00 0.00 32 1015.3
20260830201522 74 230 0.0 4.0 0.00 0.00 0.00 33 1015.5
20260830200021 73 359 0.0 3.0 0.00 0.00 0.00 34 1015.8
20260830194518 72 246 0.0 2.0 0.00 0.00 0.00 35 1016.0
20260830193016 71 240 0.0 1.0 0.00 0.00 0.00 38 1016.3
20260830191517 70 354 0.0 3.0 0.00 0.00 0.00 38 1016.5
20260830190015 69 295 0.0 1.0 0.00 0.00 0.00 39 1016.8
20260830184514 68 270 0.0 0.0 0.00 0.00 0.00 41 1017.1
20260830183013 67 35 0.0 1.0 0.00 0.00 0.00 42 1017.3
20260830181510 65 319 0.0 0.0 0.00 0.00 0.00 45 1017.7
20260830180010 64 284 0.0 0.0 0.00 0.00 0.00 48 1017.9
20260830174510 63 202 0.0 0.0 0.00 0.00 0.00 48 1018.1
20260830173009 62 260 0.0 0.0 0.00 0.00 0.00 50 1018.2
20260830171509 61 235 0.0 1.0 0.00 0.00 0.00 51 1018.3
20260830170006 61 298 0.0 1.0 0.00 0.00 0.00 53 1018.5
20260830164504 60 32 0.0 0.0 0.00 0.00 0.00 55 1018.7
20260830163710 59 321 0.0 0.0 0.00 0.00 0.00 56 1018.8
20260830161501 57 297 0.0 0.0 0.00 0.00 0.00 59 1019.0
20260830160002 56 329 0.0 0.0 0.00 0.00 0.00 61 1019.2
20260830154502 54 329 0.0 1.0 0.00 0.00 0.00 65 1019.3
20260830152959 53 60 0.0 1.0 0.00 0.00 0.00 68 1019.4
20260830151457 51 58 0.0 1.0 0.00 0.00 0.00 73 1019.4
20260830150703 51 18 0.0 1.0 0.00 0.00 0.00 73 1019.4
20260830144457 50 14 0.0 1.0 0.00 0.00 0.00 75 1019.4
20260830142955 49 104 0.0 0.0 0.00 0.00 0.00 77 1019.4
20260830142846 48 104 0.0 0.0 0.00 0.00 0.00 79 1019.2
20260830140700 47 109 0.0 0.0 0.00 0.00 0.00 79 1019.1
20260830134453 48 109 0.0 0.0 0.00 0.00 0.00 79 1019.0
20260830132953 48 109 0.0 0.0 0.00 0.00 0.00 78 1018.9